Weather History for Osceola Municipal, IA

Change the Weather History Date:

Saturday, August 24, 2013

  Actual Average (KLWD) Record (KLWD)
Temperature  
Mean Temperature 80 °F 73 °F  
Max Temperature 91 °F 83 °F 99 °F (2003)
Min Temperature 68 °F 63 °F 50 °F (1966)
Degree Days  
Heating Degree Days 0 0  
Month to date heating degree days 0  
Since 1 June heating degree days 21  
Since 1 July heating degree days 2  
Cooling Degree Days 14 8  
Month to date cooling degree days 225  
Year to date cooling degree days 788  
Since 1 June cooling degree days 734  
Growing Degree Days 30 (Base 50)    
Moisture  
Dew Point 66 °F    
Average Humidity 66    
Maximum Humidity 89    
Minimum Humidity 39    
Precipitation  
Precipitation 0.00 in 0.12 in 2.10 in (2007)
Month to date precipitation 3.20  
Sea Level Pressure  
Sea Level Pressure 30.12 in    
Wind  
Wind Speed 7 mph (SSE)    
Max Wind Speed 13 mph    
Max Gust Speed 20 mph    
Visibility 10 miles    
Events      
T = Trace of Precipitation, MM = Missing Value Source: NWS Daily Summary

Daily Weather History Graph

Daily Weather History Graph

Search for Another Location

Airport:

Trip Planner

Search our weather history database for the weather conditions in past years. The results will help you decide how hot, cold, wet, or windy it might be!

Date:

Astronomy

Aug. 24, 2013 Rise Set
Actual Time 6:33 AM CDT 7:59 PM CDT
Civil Twilight 6:04 AM CDT 8:28 PM CDT
Nautical Twilight 5:30 AM CDT 9:02 PM CDT
Astronomical Twilight 4:53 AM CDT 9:39 PM CDT
Moon 9:51 PM CDT (8/24) 10:36 AM CDT (8/24)
Length of Visible Light 14h 23m
Length of Day
13h 25m
Waning Gibbous, 84% of the Moon is Illuminated
Aug 24
Waning Gibbous
Aug 28
Last Quarter
Sep 5
New
Sep 12
First Quarter
Sep 19
Full

Hourly Weather History & Observations

Time (CDT) Temp. Heat Index Dew Point Humidity Pressure Visibility Wind Dir Wind Speed Gust Speed Precip Events Conditions
12:15 AM 74.3 °F - 66.4 °F 76% 30.08 in 10.0 mi ESE 8.1 mph - N/A   Clear
12:35 AM 73.9 °F - 66.6 °F 78% 30.09 in 10.0 mi SE 6.9 mph - N/A   Clear
12:55 AM 73.4 °F - 66.4 °F 79% 30.09 in 10.0 mi SE 6.9 mph - N/A   Clear
1:15 AM 73.0 °F - 66.6 °F 80% 30.09 in 10.0 mi SE 5.8 mph - N/A   Clear
1:35 AM 72.3 °F - 66.4 °F 82% 30.09 in 10.0 mi SE 4.6 mph - N/A   Clear
1:55 AM 71.6 °F - 66.4 °F 84% 30.09 in 10.0 mi ESE 5.8 mph - N/A   Clear
2:15 AM 71.8 °F - 66.6 °F 84% 30.09 in 10.0 mi SE 6.9 mph - N/A   Clear
2:35 AM 71.6 °F - 66.4 °F 84% 30.09 in 10.0 mi SE 5.8 mph - N/A   Clear
2:55 AM 71.1 °F - 66.2 °F 85% 30.10 in 10.0 mi SE 6.9 mph - N/A   Clear
3:15 AM 70.9 °F - 66.2 °F 85% 30.10 in 10.0 mi SE 6.9 mph - N/A   Clear
3:35 AM 71.1 °F - 66.2 °F 85% 30.10 in 10.0 mi SE 6.9 mph - N/A   Clear
3:55 AM 70.7 °F - 66.2 °F 86% 30.10 in 10.0 mi SE 8.1 mph - N/A   Clear
4:15 AM 70.0 °F - 66.0 °F 87% 30.11 in 10.0 mi SE 6.9 mph - N/A   Clear
4:35 AM 69.8 °F - 65.8 °F 87% 30.12 in 10.0 mi SE 5.8 mph - N/A   Clear
4:55 AM 68.9 °F - 65.5 °F 89% 30.12 in 10.0 mi SE 4.6 mph - N/A   Clear
5:15 AM 68.9 °F - 65.7 °F 89% 30.12 in 10.0 mi SE 3.5 mph - N/A   Clear
5:35 AM 69.4 °F - 65.8 °F 88% 30.12 in 10.0 mi SE 5.8 mph - N/A   Clear
5:55 AM 69.4 °F - 65.7 °F 88% 30.12 in 10.0 mi SE 6.9 mph - N/A   Clear
6:15 AM 69.4 °F - 65.7 °F 88% 30.13 in 10.0 mi SSE 5.8 mph - N/A   Clear
6:35 AM 68.9 °F - 65.3 °F 88% 30.14 in 10.0 mi SSE 6.9 mph - N/A   Clear
6:55 AM 68.9 °F - 65.5 °F 89% 30.15 in 7.0 mi SE 5.8 mph - N/A   Clear
7:15 AM 69.8 °F - 65.8 °F 87% 30.15 in 10.0 mi SE 6.9 mph - N/A   Clear
7:35 AM 70.7 °F - 66.2 °F 86% 30.15 in 10.0 mi SSE 5.8 mph - N/A   Clear
7:55 AM 71.8 °F - 66.6 °F 84% 30.16 in 10.0 mi SSE 6.9 mph - N/A   Clear
8:15 AM 72.3 °F - 66.9 °F 83% 30.16 in 10.0 mi SSE 6.9 mph - N/A   Clear
8:35 AM 73.4 °F - 67.1 °F 81% 30.16 in 10.0 mi SSE 6.9 mph - N/A   Clear
8:55 AM 75.0 °F - 67.8 °F 78% 30.17 in 10.0 mi SSE 6.9 mph - N/A   Clear
9:15 AM 76.5 °F - 68.2 °F 75% 30.16 in 10.0 mi SSE 9.2 mph - N/A   Clear
9:35 AM 77.9 °F - 68.5 °F 73% 30.16 in 10.0 mi SSE 6.9 mph - N/A   Clear
9:55 AM 79.9 °F - 69.1 °F 69% 30.16 in 10.0 mi SSE 6.9 mph - N/A   Clear
10:15 AM 81.1 °F 84.4 °F 69.1 °F 67% 30.16 in 10.0 mi SSE 9.2 mph - N/A   Clear
10:35 AM 81.9 °F 85.2 °F 68.9 °F 65% 30.16 in 10.0 mi SSE 10.4 mph - N/A   Clear
10:55 AM 83.5 °F 87.2 °F 69.3 °F 62% 30.16 in 10.0 mi South 8.1 mph - N/A   Clear
11:15 AM 84.4 °F 88.5 °F 69.4 °F 61% 30.16 in 10.0 mi South 9.2 mph - N/A   Clear
11:35 AM 84.9 °F 88.2 °F 68.4 °F 57% 30.16 in 10.0 mi South 10.4 mph 16.1 mph N/A   Clear
11:55 AM 86.0 °F 89.7 °F 68.7 °F 56% 30.16 in 10.0 mi South 8.1 mph - N/A   Scattered Clouds
12:15 PM 86.9 °F 90.3 °F 68.0 °F 53% 30.16 in 10.0 mi South 8.1 mph 17.3 mph N/A   Scattered Clouds
12:35 PM 87.3 °F 90.9 °F 68.4 °F 53% 30.15 in 10.0 mi South 8.1 mph 16.1 mph N/A   Scattered Clouds
12:55 PM 87.6 °F 91.1 °F 68.2 °F 52% 30.15 in 10.0 mi South 11.5 mph - N/A   Mostly Cloudy
1:15 PM 88.3 °F 91.2 °F 67.1 °F 49% 30.14 in 10.0 mi South 12.7 mph 18.4 mph N/A   Scattered Clouds
1:35 PM 88.9 °F 90.7 °F 65.3 °F 45% 30.14 in 10.0 mi SSE 9.2 mph 17.3 mph N/A   Clear
1:55 PM 88.7 °F 91.1 °F 66.2 °F 47% 30.13 in 10.0 mi SSE 9.2 mph 16.1 mph N/A   Scattered Clouds
2:15 PM 89.1 °F 91.3 °F 66.0 °F 46% 30.13 in 10.0 mi South 8.1 mph 17.3 mph N/A   Scattered Clouds
2:35 PM 90.1 °F 92.3 °F 65.8 °F 44% 30.12 in 10.0 mi South 10.4 mph - N/A   Scattered Clouds
2:55 PM 89.1 °F 91.0 °F 64.9 °F 45% 30.11 in 10.0 mi South 11.5 mph - N/A   Scattered Clouds
3:15 PM 89.6 °F 91.1 °F 64.6 °F 43% 30.11 in 10.0 mi South 11.5 mph - N/A   Scattered Clouds
3:35 PM 90.5 °F 91.4 °F 63.3 °F 40% 30.09 in 10.0 mi SSE 12.7 mph 17.3 mph N/A   Scattered Clouds
3:55 PM 90.5 °F 91.4 °F 63.0 °F 40% 30.09 in 10.0 mi South 11.5 mph 19.6 mph N/A   Scattered Clouds
4:15 PM 90.3 °F 91.2 °F 63.1 °F 40% 30.09 in 10.0 mi SSE 11.5 mph 17.3 mph N/A   Scattered Clouds
4:35 PM 91.0 °F 91.9 °F 62.6 °F 39% 30.09 in 10.0 mi SSE 12.7 mph 18.4 mph N/A   Scattered Clouds
4:55 PM 89.2 °F 89.9 °F 63.0 °F 41% 30.08 in 10.0 mi SSE 12.7 mph 19.6 mph N/A   Scattered Clouds
5:15 PM 88.7 °F 89.8 °F 63.7 °F 43% 30.08 in 10.0 mi SSE 11.5 mph 18.4 mph N/A   Clear
5:35 PM 87.8 °F 89.4 °F 64.4 °F 46% 30.09 in 10.0 mi SSE 9.2 mph 16.1 mph N/A   Clear
5:55 PM 87.3 °F 89.2 °F 65.1 °F 48% 30.08 in 10.0 mi SSE 6.9 mph - N/A   Clear
6:15 PM 86.5 °F 88.7 °F 65.8 °F 50% 30.08 in 10.0 mi SSE 6.9 mph - N/A   Clear
6:35 PM 85.6 °F 87.9 °F 66.0 °F 52% 30.08 in 10.0 mi SSE 8.1 mph - N/A   Clear
6:55 PM 85.3 °F 87.6 °F 66.2 °F 53% 30.08 in 10.0 mi SSE 8.1 mph - N/A   Clear
7:15 PM 85.1 °F 87.4 °F 66.2 °F 53% 30.09 in 10.0 mi SSE 4.6 mph - N/A   Clear
7:35 PM 84.0 °F 86.3 °F 66.2 °F 55% 30.09 in 10.0 mi SSE 5.8 mph - N/A   Clear
7:55 PM 82.4 °F 84.6 °F 66.2 °F 58% 30.09 in 10.0 mi SSE 5.8 mph - N/A   Clear
8:15 PM 81.7 °F 83.6 °F 65.5 °F 58% 30.09 in 10.0 mi SSE 6.9 mph - N/A   Clear
8:35 PM 80.6 °F 82.5 °F 65.5 °F 60% 30.10 in 10.0 mi SSE 5.8 mph - N/A   Clear
8:55 PM 80.2 °F 82.1 °F 65.3 °F 60% 30.11 in 10.0 mi SSE 5.8 mph - N/A   Clear
9:15 PM 79.9 °F - 64.9 °F 60% 30.12 in 10.0 mi SSE 5.8 mph - N/A   Clear
9:35 PM 78.8 °F - 65.3 °F 63% 30.13 in 10.0 mi SSE 5.8 mph - N/A   Clear
9:55 PM 78.3 °F - 65.3 °F 64% 30.13 in 10.0 mi SSE 5.8 mph - N/A   Clear
10:15 PM 77.7 °F - 65.3 °F 65% 30.13 in 10.0 mi SSE 6.9 mph - N/A   Clear
10:35 PM 77.0 °F - 65.5 °F 67% 30.13 in 10.0 mi SSE 5.8 mph - N/A   Clear
10:55 PM 76.1 °F - 65.3 °F 69% 30.13 in 10.0 mi SSE 5.8 mph - N/A   Clear
11:15 PM 76.1 °F - 64.9 °F 68% 30.13 in 10.0 mi SSE 5.8 mph - N/A   Clear
11:35 PM 76.1 °F - 64.6 °F 67% 30.13 in 10.0 mi South 8.1 mph - N/A   Clear
11:55 PM 76.1 °F - 63.9 °F 66% 30.13 in 10.0 mi South 6.9 mph - N/A   Clear